Bigfork, MN

1:26 AM CST on December 06, 2016 (GMT -0600)
Bigfork Municipal

Weather History for KFOZ - February, 2013

Change the Weather History Date:

Monday, February 18, 2013

  Actual Average (KGPZ) Record (KGPZ)
Temperature  
Mean Temperature 14 °F -  
Max Temperature 26 °F 28 °F 54 °F (1981)
Min Temperature 1 °F 6 °F -34 °F (1927)
Degree Days  
Heating Degree Days 52    
Moisture  
Dew Point 12 °F    
Average Humidity 77    
Maximum Humidity 86    
Minimum Humidity 69    
Precipitation  
Precipitation 0.03 in - - ()
Sea Level Pressure  
Sea Level Pressure 29.60 in    
Wind  
Wind Speed 7 mph (NW)    
Max Wind Speed 14 mph    
Max Gust Speed 24 mph    
Visibility 5 miles    
Events Snow    
Averages and records for this station are not official NWS values.
T = Trace of Precipitation, MM = Missing Value Source: NWS Daily Summary

Daily Weather History Graph

Daily Weather History Graph

Search for Another Location

Airport or City:

Trip Planner

Search our weather history database for the weather conditions in past years. The results will help you decide how hot, cold, wet, or windy it might be!

Date:

Astronomy

Feb. 18, 2013 Rise Set
Actual Time 7:14 AM CST 5:42 PM CST
Civil Twilight 6:43 AM CST 6:14 PM CST
Nautical Twilight 6:07 AM CST 6:50 PM CST
Astronomical Twilight 5:31 AM CST 7:26 PM CST
Moon 11:16 AM CST (2/18) 2:07 AM CST (2/18)
Length of Visible Light 11h 31m
Length of Day
10h 27m
First Quarter, 58% of the Moon is Illuminated
Feb 18
First Quarter
Feb 25
Full
Mar 4
Last Quarter
Mar 11
New
Mar 19
First Quarter

Hourly Weather History & Observations

Time (CST) Temp. Windchill Dew Point Humidity Pressure Visibility Wind Dir Wind Speed Gust Speed Precip Events Conditions
12:13 AM 24.8 °F 15.3 °F 17.6 °F 74% 29.55 in 10.0 mi South 9.2 mph - N/A   Clear
12:33 AM 26.6 °F 16.8 °F 17.6 °F 69% 29.54 in 10.0 mi South 10.4 mph - N/A   Scattered Clouds
12:53 AM 26.6 °F 20.0 °F 17.6 °F 69% 29.54 in 10.0 mi SSE 5.8 mph - N/A   Overcast
1:13 AM 26.6 °F 16.8 °F 17.6 °F 69% 29.54 in 10.0 mi South 10.4 mph - N/A   Overcast
1:33 AM 26.6 °F 19.1 °F 17.6 °F 69% 29.54 in 10.0 mi SSE 6.9 mph - N/A   Overcast
1:53 AM 26.6 °F 20.0 °F 17.6 °F 69% 29.53 in 10.0 mi SSE 5.8 mph - N/A   Overcast
2:13 AM 26.6 °F 19.1 °F 17.6 °F 69% 29.53 in 10.0 mi SSE 6.9 mph - N/A   Overcast
2:33 AM 26.6 °F 17.5 °F 17.6 °F 69% 29.52 in 10.0 mi SSE 9.2 mph - N/A   Overcast
2:53 AM 26.6 °F 17.5 °F 17.6 °F 69% 29.52 in 10.0 mi South 9.2 mph - N/A   Overcast
3:13 AM 26.6 °F 19.1 °F 17.6 °F 69% 29.51 in 10.0 mi SSE 6.9 mph - N/A   Overcast
3:33 AM 26.6 °F 17.5 °F 17.6 °F 69% 29.50 in 10.0 mi SSE 9.2 mph - N/A   Overcast
3:53 AM 24.8 °F 16.9 °F 17.6 °F 74% 29.49 in 10.0 mi SSE 6.9 mph - N/A   Overcast
4:13 AM 24.8 °F 19.1 °F 17.6 °F 74% 29.48 in 10.0 mi SSE 4.6 mph - N/A   Overcast
4:33 AM 24.8 °F 17.9 °F 17.6 °F 74% 29.49 in 10.0 mi SSE 5.8 mph - N/A   Overcast
4:53 AM 24.8 °F 17.9 °F 17.6 °F 74% 29.48 in 4.0 mi SSE 5.8 mph - N/A Snow Light Snow
5:13 AM 24.8 °F 20.5 °F 19.4 °F 80% 29.48 in 2.0 mi SSE 3.5 mph - N/A Snow Light Snow
5:33 AM 24.8 °F 20.5 °F 19.4 °F 80% 29.48 in 1.5 mi SSE 3.5 mph - N/A Snow Light Snow
6:13 AM 24.8 °F 20.5 °F 19.4 °F 80% 29.48 in 1.5 mi South 3.5 mph - N/A Snow Light Snow
6:33 AM 23.0 °F 18.4 °F 19.4 °F 86% 29.48 in 0.5 mi South 3.5 mph - N/A Snow Heavy Snow
6:53 AM 23.0 °F 17.0 °F 19.4 °F 86% 29.47 in 1.0 mi SSE 4.6 mph - N/A Snow Snow
7:13 AM 23.0 °F - 19.4 °F 86% 29.47 in 2.0 mi Calm Calm - 0.01 in Snow Light Snow
7:33 AM 23.0 °F - 19.4 °F 86% 29.47 in 5.0 mi Calm Calm - 0.01 in Snow Light Snow
7:53 AM 23.0 °F - 19.4 °F 86% 29.47 in 4.0 mi Calm Calm - 0.01 in Snow Light Snow
8:13 AM 23.0 °F - 19.4 °F 86% 29.47 in 7.0 mi Calm Calm - 0.01 in   Scattered Clouds
8:33 AM 23.0 °F - 19.4 °F 86% 29.47 in 7.0 mi Calm Calm - 0.02 in Snow Light Snow
8:53 AM 23.0 °F - 19.4 °F 86% 29.47 in 4.0 mi Calm Calm - N/A Snow Light Snow
9:13 AM 24.8 °F - 19.4 °F 80% 29.47 in 3.0 mi Calm Calm - N/A Snow Light Snow
9:33 AM 24.8 °F - 19.4 °F 80% 29.48 in 3.0 mi Calm Calm - N/A Snow Light Snow
9:53 AM 24.8 °F - 19.4 °F 80% 29.49 in 5.0 mi Calm Calm - N/A Snow Light Snow
10:13 AM 24.8 °F - 19.4 °F 80% 29.49 in 7.0 mi Calm Calm - N/A Snow Light Snow
10:33 AM 24.8 °F - 19.4 °F 80% 29.49 in 5.0 mi Calm Calm - N/A Snow Light Snow
10:53 AM 24.8 °F - 19.4 °F 80% 29.50 in 7.0 mi Calm Calm - N/A   Overcast
11:13 AM 24.8 °F - 21.2 °F 86% 29.51 in 7.0 mi Calm Calm - N/A   Overcast
11:33 AM 26.6 °F - 21.2 °F 80% 29.51 in 7.0 mi Calm Calm - N/A   Mostly Cloudy
11:53 AM 26.6 °F 21.2 °F 21.2 °F 80% 29.52 in 7.0 mi NW 4.6 mph - N/A   Mostly Cloudy
12:13 PM 26.6 °F 21.2 °F 21.2 °F 80% 29.52 in 10.0 mi NNW 4.6 mph - N/A   Overcast
12:33 PM 26.6 °F 21.2 °F 21.2 °F 80% 29.52 in 7.0 mi NW 4.6 mph - N/A   Overcast
12:53 PM 26.6 °F 18.2 °F 21.2 °F 80% 29.53 in 10.0 mi NNW 8.1 mph - N/A Snow Light Snow
1:13 PM 21.2 °F 11.7 °F 17.6 °F 86% 29.54 in 7.0 mi NW 8.1 mph 16.1 mph N/A Snow Light Snow
1:33 PM 21.2 °F 12.6 °F 15.8 °F 80% 29.55 in 7.0 mi NW 6.9 mph 18.4 mph N/A Snow Light Snow
1:53 PM 21.2 °F 12.6 °F 15.8 °F 80% 29.56 in 4.0 mi NW 6.9 mph 20.7 mph N/A Snow Light Snow
2:13 PM 21.2 °F 10.9 °F 15.8 °F 80% 29.58 in 2.5 mi NW 9.2 mph - N/A Snow Light Snow
2:33 PM 19.4 °F 7.9 °F 14.0 °F 80% 29.59 in 1.5 mi NNW 10.4 mph 19.6 mph N/A Snow Light Snow
2:53 PM 19.4 °F 7.9 °F 14.0 °F 80% 29.59 in 2.5 mi NW 10.4 mph 24.2 mph N/A Snow Light Snow
3:13 PM 19.4 °F 9.5 °F 12.2 °F 74% 29.61 in 1.2 mi NW 8.1 mph 21.9 mph N/A Snow Light Snow
3:33 PM 17.6 °F 5.0 °F 12.2 °F 79% 29.62 in 1.2 mi NW 11.5 mph 20.7 mph N/A Snow Light Snow
3:53 PM 17.6 °F 6.4 °F 10.4 °F 73% 29.64 in 1.5 mi NW 9.2 mph 19.6 mph N/A Snow Light Snow
4:14 PM 15.8 °F 4.2 °F 8.6 °F 73% 29.65 in 2.0 mi NW 9.2 mph 18.4 mph N/A Snow Light Snow
4:33 PM 15.8 °F 4.2 °F 8.6 °F 73% 29.67 in 3.0 mi NW 9.2 mph 24.2 mph N/A Snow Light Snow
4:53 PM 14.0 °F -0.2 °F 6.8 °F 73% 29.68 in 5.0 mi NNW 12.7 mph 19.6 mph N/A Snow Light Snow
5:13 PM 12.2 °F -0.2 °F 6.8 °F 79% 29.69 in 2.5 mi NNW 9.2 mph 21.9 mph N/A Snow Light Snow
5:33 PM 12.2 °F -1.8 °F 6.8 °F 79% 29.71 in 2.0 mi NNW 11.5 mph 21.9 mph N/A Snow Light Snow
5:53 PM 12.2 °F -2.5 °F 6.8 °F 79% 29.72 in 1.8 mi NNW 12.7 mph 20.7 mph N/A Snow Light Snow
6:13 PM 10.4 °F -5.4 °F 3.2 °F 73% 29.74 in 4.0 mi North 13.8 mph 21.9 mph N/A Snow Light Snow
6:33 PM 10.4 °F -0.4 °F 3.2 °F 73% 29.75 in 4.0 mi NNW 6.9 mph - N/A Snow Light Snow
6:53 PM 8.6 °F -7.7 °F 3.2 °F 79% 29.76 in 3.0 mi NNW 13.8 mph 21.9 mph N/A Snow Light Snow
7:13 PM 8.6 °F -7.0 °F 1.4 °F 73% 29.76 in 7.0 mi North 12.7 mph 23.0 mph N/A Snow Light Snow
7:33 PM 8.6 °F -3.7 °F 1.4 °F 73% 29.77 in 2.5 mi North 8.1 mph - N/A Snow Light Snow
7:53 PM 8.6 °F -7.0 °F 1.4 °F 73% 29.78 in 4.0 mi North 12.7 mph 20.7 mph N/A Snow Light Snow
8:13 PM 6.8 °F -5.9 °F 1.4 °F 79% 29.78 in 4.0 mi NNW 8.1 mph 17.3 mph N/A Snow Light Snow
8:33 PM 6.8 °F -9.3 °F -0.4 °F 72% 29.79 in 4.0 mi NNW 12.7 mph 20.7 mph N/A Snow Light Snow
8:53 PM 5.0 °F -10.0 °F -0.4 °F 78% 29.79 in 3.0 mi NNW 10.4 mph 18.4 mph N/A Snow Light Snow
9:13 PM 3.2 °F -13.1 °F -2.2 °F 78% 29.80 in 5.0 mi NNW 11.5 mph 18.4 mph N/A Snow Light Snow
9:33 PM 3.2 °F -14.6 °F -2.2 °F 78% 29.81 in 4.0 mi North 13.8 mph 24.2 mph N/A Snow Light Snow
9:53 PM 3.2 °F -11.3 °F -2.2 °F 78% 29.82 in 3.0 mi North 9.2 mph 16.1 mph N/A Snow Light Snow
10:13 PM 3.2 °F -11.3 °F -2.2 °F 78% 29.83 in 4.0 mi North 9.2 mph 18.4 mph N/A Snow Light Snow
10:33 PM 3.2 °F -12.2 °F -4.0 °F 72% 29.83 in 4.0 mi NNW 10.4 mph 21.9 mph N/A Snow Light Snow
10:53 PM 3.2 °F -13.9 °F -4.0 °F 72% 29.84 in 4.0 mi North 12.7 mph 19.6 mph N/A Snow Light Snow
11:13 PM 1.4 °F -15.3 °F -5.8 °F 72% 29.85 in 7.0 mi North 11.5 mph 24.2 mph N/A Snow Light Snow
11:33 PM 1.4 °F -13.5 °F -5.8 °F 72% 29.85 in 7.0 mi NNW 9.2 mph 18.4 mph N/A Snow Light Snow
11:53 PM 1.4 °F -16.9 °F -5.8 °F 72% 29.86 in 5.0 mi North 13.8 mph 21.9 mph N/A Snow Light Snow